Regional Weather Roundup
Issued by NWS

Home | Current Version | Previous Version | Text Only | Print | Product List | Glossary Off
Versions: 1 2 3 4 5 6 7 8 9 10 11 12 13 14 15 16 17 18 19 20 21 22 23 24 25 26 27 28 29 30 31 32 33 34 35 36 37 38 39 40 41 42 43 44 45 46 47 48 49 50

000
ASUS44 KMEG 172010
RWRTN
TENNESSEE HOURLY STATE WEATHER ROUNDUP
NATIONAL WEATHER SERVICE MEMPHIS TN
300 PM CDT FRI APR 17 2015

TNZ002-004-019-021-049-052-054-088>092-172100-
WEST TENNESSEE

CITY           SKY/WX    TMP DP  RH WIND       PRES   REMARKS
MEMPHIS INTL   CLOUDY    71  61  70 CALM      30.02F
NWS MEMPHIS      N/A     71 N/A N/A MISG        N/A
JACKSON        CLOUDY    66  61  84 NE3       30.03F
DYERSBURG      CLOUDY    70  54  56 SE3       30.03F
UNION CITY     CLOUDY    70  32  24 NE3       30.03F
PARIS          MOSUNNY   70  61  73 E6        30.04F
LEXINGTON      CLOUDY    66  59  77 CALM      30.03F
SAVANNAH       CLOUDY    66  32  28 CALM      30.03F
$$

TNZ008-025-027-028-033-062-065-066-172100-
NORTH MIDDLE TENNESSEE

CITY           SKY/WX    TMP DP  RH WIND       PRES   REMARKS
NASHVILLE      CLOUDY    68  60  75 CALM      30.05F
CLARKSVILLE    CLOUDY    71  61  70 E6        30.04F
SMYRNA         CLOUDY    69  61  76 CALM      30.05F
COOKEVILLE     SUNNY     72  61  68 CALM      30.03F
CROSSVILLE     CLOUDY    69  57  65 S7        30.07F
$$

TNZ061-075-076-078-094-096-097-172100-
SOUTH MIDDLE TENNESSEE

CITY           SKY/WX    TMP DP  RH WIND       PRES   REMARKS
FAYETTEVILLE   CLOUDY    63  59  88 SE3       30.04F
TULLAHOMA      PTSUNNY   70  61  73 CALM      30.04F
WINCHESTER     MOSUNNY   64  61  88 SE7       30.05F
MCMINNVILLE    SUNNY     73  63  68 N5        30.03F
COLUMBIA       CLOUDY    68  32  26 NE3       30.03F
$$

TNZ017-018-042-046-047-172100-
NORTHEAST TENNESSEE

CITY           SKY/WX    TMP DP  RH WIND       PRES   REMARKS
TRI CITIES     PTSUNNY   73  55  53 VRB3      30.05F
ELIZABETHTON   CLEAR     72  55  56 VRB6      30.05F
$$

TNZ012-013-036-069-073-074-172100-
CENTRAL EAST TENNESSEE

CITY           SKY/WX    TMP DP  RH WIND       PRES   REMARKS
KNOXVILLE      CLOUDY    69  59  70 NW5       30.05F
OAK RIDGE      CLOUDY    72  58  61 CALM      30.06F
GATLINBURG     CLEAR     68  57  68 N6        30.05F
MORRISTOWN     CLEAR     70  59  68 W3        30.07F
$$

TNZ083-085-099-172100-
SOUTHEAST TENNESSEE

CITY           SKY/WX    TMP DP  RH WIND       PRES   REMARKS
CHATTANOOGA    RAIN      62  59  90 NW3       30.07F FOG
$$

SKY/WX REPORTED AS FAIR MEANS FEW OR NO CLOUDS BELOW
12 THOUSAND FEET.



USA.gov is the U.S. government's official web portal to all federal, state and local government web resources and services.